Gustavus, AK

5:06 PM AKDT on October 22, 2017 (GMT -0800)
Gustavus

Weather History for PAGS - December, 2012

Change the Weather History Date:

Thursday, December 6, 2012

  Actual Average Record
Temperature  
Mean Temperature 28 °F -  
Max Temperature 33 °F 33 °F 47 °F (1960)
Min Temperature 24 °F 25 °F 0 °F (1977)
Degree Days  
Heating Degree Days 36    
Moisture  
Dew Point 23 °F    
Average Humidity 79    
Maximum Humidity 86    
Minimum Humidity 69    
Precipitation  
Precipitation 0.00 in - - ()
Sea Level Pressure  
Sea Level Pressure 29.69 in    
Wind  
Wind Speed 4 mph (WNW)    
Max Wind Speed 9 mph    
Max Gust Speed -    
Visibility 9 miles    
Events      
Averages and records for this station are not official NWS values.
T = Trace of Precipitation, MM = Missing Value Source: NWS Daily Summary

Daily Weather History Graph

Daily Weather History Graph

Search for Another Location

Airport or City:

Trip Planner

Search our weather history database for the weather conditions in past years. The results will help you decide how hot, cold, wet, or windy it might be!

Date:

Astronomy

Dec. 06, 2012 Rise Set
Actual Time 8:35 AM AKST 3:12 PM AKST
Civil Twilight 7:43 AM AKST 4:04 PM AKST
Nautical Twilight 6:51 AM AKST 4:56 PM AKST
Astronomical Twilight 6:02 AM AKST 5:45 PM AKST
Moon No Moon Rise 12:07 PM AKST (12/6)
Length of Visible Light 8h 20m
Length of Day
6h 37m
Waning Gibbous, 48% of the Moon is Illuminated
Dec 6
Waning Gibbous
Dec 12
New
Dec 19
First Quarter
Dec 28
Full
Jan 4
Last Quarter

Hourly Weather History & Observations

Time (AKST) Temp. Windchill Dew Point Humidity Pressure Visibility Wind Dir Wind Speed Gust Speed Precip Events Conditions
12:16 AM 30.2 °F 24.3 °F 24.8 °F 80% 29.70 in 10.0 mi South 5.8 mph - N/A   Mostly Cloudy
12:36 AM 32.0 °F 24.2 °F 24.8 °F 75% 29.71 in 10.0 mi SSE 9.2 mph - N/A   Overcast
12:56 AM 32.0 °F 24.8 °F 24.8 °F 75% 29.71 in 10.0 mi SSE 8.1 mph - N/A   Overcast
1:16 AM 30.2 °F - 24.8 °F 80% 29.70 in 10.0 mi Calm Calm - N/A   Overcast
1:36 AM 30.2 °F 26.7 °F 24.8 °F 80% 29.70 in 10.0 mi SSE 3.5 mph - N/A   Overcast
1:56 AM 32.0 °F 26.4 °F 24.8 °F 75% 29.70 in 10.0 mi SSE 5.8 mph - N/A   Overcast
2:36 AM 30.2 °F 24.3 °F 24.8 °F 80% 29.71 in 10.0 mi South 5.8 mph - N/A   Mostly Cloudy
2:56 AM 32.0 °F 25.6 °F 24.8 °F 75% 29.71 in 10.0 mi South 6.9 mph - N/A   Mostly Cloudy
3:16 AM 30.2 °F 24.3 °F 24.8 °F 80% 29.71 in 10.0 mi South 5.8 mph - N/A   Scattered Clouds
3:36 AM 28.4 °F - 21.2 °F 74% 29.70 in 10.0 mi Calm Calm - N/A   Scattered Clouds
3:56 AM 26.6 °F - 19.4 °F 74% 29.70 in 10.0 mi Calm Calm - N/A   Mostly Cloudy
4:16 AM 30.2 °F 22.6 °F 24.8 °F 80% 29.71 in 10.0 mi SSE 8.1 mph - N/A   Scattered Clouds
4:36 AM 30.2 °F 22.6 °F 24.8 °F 80% 29.71 in 10.0 mi SSE 8.1 mph - N/A   Clear
4:56 AM 30.2 °F - 21.2 °F 69% 29.70 in 10.0 mi Calm Calm - N/A   Partly Cloudy
5:16 AM 30.2 °F - 24.8 °F 80% 29.70 in 10.0 mi Calm Calm - N/A   Mostly Cloudy
5:36 AM 30.2 °F 25.4 °F 24.8 °F 80% 29.70 in 10.0 mi SSE 4.6 mph - N/A   Mostly Cloudy
5:56 AM 30.2 °F - 21.2 °F 69% 29.70 in 10.0 mi Calm Calm - N/A   Overcast
6:16 AM 32.0 °F 24.2 °F 24.8 °F 75% 29.71 in 10.0 mi SSE 9.2 mph - N/A   Overcast
6:36 AM 32.0 °F 24.8 °F 23.0 °F 69% 29.71 in 10.0 mi SE 8.1 mph - N/A   Overcast
6:56 AM 32.0 °F 24.8 °F 24.8 °F 75% 29.72 in 3.0 mi SSE 8.1 mph - N/A   Overcast
7:16 AM 30.2 °F 23.4 °F 26.6 °F 86% 29.72 in 2.0 mi East 6.9 mph - N/A   Overcast
7:36 AM 30.2 °F - 24.8 °F 80% 29.71 in 10.0 mi Calm Calm - N/A   Mostly Cloudy
7:56 AM 28.4 °F - 24.8 °F 86% 29.71 in 7.0 mi Calm Calm - N/A   Mostly Cloudy
8:16 AM 28.4 °F - 24.8 °F 86% 29.71 in 10.0 mi Calm Calm - N/A   Scattered Clouds
8:36 AM 26.6 °F - 23.0 °F 86% 29.71 in 10.0 mi Calm Calm - N/A   Mostly Cloudy
8:56 AM 26.6 °F - 21.2 °F 80% 29.72 in 10.0 mi Calm Calm - N/A   Overcast
9:16 AM 26.6 °F - 23.0 °F 86% 29.72 in 10.0 mi Calm Calm - N/A   Overcast
9:36 AM 26.6 °F - 21.2 °F 80% 29.72 in 10.0 mi Calm Calm - N/A   Mostly Cloudy
9:56 AM 30.2 °F 23.4 °F 26.6 °F 86% 29.72 in 10.0 mi SSE 6.9 mph - N/A   Mostly Cloudy
10:16 AM 26.6 °F 22.6 °F 17.6 °F 69% 29.73 in 10.0 mi North 3.5 mph - N/A   Mostly Cloudy
10:36 AM 26.6 °F - 19.4 °F 74% 29.73 in 10.0 mi Calm Calm - N/A   Mostly Cloudy
10:56 AM 24.8 °F - 19.4 °F 80% 29.74 in 10.0 mi Calm Calm - N/A   Partly Cloudy
11:16 AM 28.4 °F 24.6 °F 24.8 °F 86% 29.74 in 10.0 mi SE 3.5 mph - N/A   Scattered Clouds
11:36 AM 32.0 °F 26.4 °F 26.6 °F 80% 29.74 in 10.0 mi SSE 5.8 mph - N/A   Overcast
11:56 AM 33.8 °F 28.6 °F 24.8 °F 70% 29.74 in 10.0 mi SE 5.8 mph - N/A   Overcast
12:16 PM 33.8 °F 29.6 °F 24.8 °F 70% 29.73 in 10.0 mi South 4.6 mph - N/A   Overcast
12:36 PM 32.0 °F 26.4 °F 24.8 °F 75% 29.73 in 10.0 mi South 5.8 mph - N/A   Mostly Cloudy
12:56 PM 32.0 °F 27.5 °F 24.8 °F 75% 29.73 in 10.0 mi South 4.6 mph - N/A   Scattered Clouds
1:16 PM 30.2 °F 26.7 °F 24.8 °F 80% 29.73 in 10.0 mi NE 3.5 mph - N/A   Mostly Cloudy
1:36 PM 28.4 °F 24.6 °F 23.0 °F 80% 29.72 in 10.0 mi North 3.5 mph - N/A   Mostly Cloudy
1:56 PM 26.6 °F 20.0 °F 21.2 °F 80% 29.71 in 10.0 mi North 5.8 mph - N/A   Mostly Cloudy
2:16 PM 28.4 °F 23.3 °F 24.8 °F 86% 29.71 in 10.0 mi NNW 4.6 mph - N/A   Overcast
2:36 PM 28.4 °F 22.2 °F 23.0 °F 80% 29.70 in 10.0 mi NNW 5.8 mph - N/A   Overcast
2:56 PM 28.4 °F - 24.8 °F 86% 29.70 in 10.0 mi Calm Calm - N/A   Mostly Cloudy
3:16 PM 28.4 °F 23.3 °F 23.0 °F 80% 29.69 in 10.0 mi NW 4.6 mph - N/A   Overcast
3:36 PM 26.6 °F - 21.2 °F 80% 29.69 in 10.0 mi Calm Calm - N/A   Overcast
3:56 PM 26.6 °F 21.2 °F 21.2 °F 80% 29.68 in 10.0 mi NNW 4.6 mph - N/A   Overcast
4:16 PM 26.6 °F 22.6 °F 21.2 °F 80% 29.68 in 10.0 mi NNW 3.5 mph - N/A   Overcast
4:36 PM 26.6 °F - 23.0 °F 86% 29.68 in 10.0 mi Calm Calm - N/A   Overcast
4:56 PM 28.4 °F 24.6 °F 23.0 °F 80% 29.68 in 10.0 mi NNW 3.5 mph - N/A   Overcast
5:36 PM 28.4 °F 23.3 °F 21.2 °F 74% 29.67 in 10.0 mi NNW 4.6 mph - N/A   Mostly Cloudy
5:56 PM 28.4 °F 24.6 °F 21.2 °F 74% 29.67 in 10.0 mi NNW 3.5 mph - N/A   Overcast
6:16 PM 28.4 °F 23.3 °F 21.2 °F 74% 29.67 in 10.0 mi NNW 4.6 mph - N/A   Overcast
6:36 PM 28.4 °F 23.3 °F 23.0 °F 80% 29.66 in 10.0 mi NNW 4.6 mph - N/A   Overcast
6:56 PM 28.4 °F 23.3 °F 21.2 °F 74% 29.65 in 10.0 mi NNW 4.6 mph - N/A   Overcast
7:16 PM 28.4 °F 22.2 °F 21.2 °F 74% 29.65 in 10.0 mi NW 5.8 mph - N/A   Overcast
7:36 PM 28.4 °F 22.2 °F 21.2 °F 74% 29.65 in 10.0 mi NW 5.8 mph - N/A   Overcast
7:56 PM 30.2 °F 23.4 °F 23.0 °F 75% 29.65 in 10.0 mi NW 6.9 mph - N/A   Overcast
8:16 PM 30.2 °F - 23.0 °F 75% 29.65 in 10.0 mi Calm Calm - N/A   Overcast
8:36 PM 28.4 °F 24.6 °F 23.0 °F 80% 29.65 in 5.0 mi NNW 3.5 mph - N/A   Overcast
8:56 PM 28.4 °F - 24.8 °F 86% 29.64 in 2.5 mi Calm Calm - N/A   Overcast
9:16 PM 28.4 °F - 24.8 °F 86% 29.64 in 2.0 mi Calm Calm - N/A   Overcast
9:36 PM 28.4 °F 23.3 °F 24.8 °F 86% 29.63 in 7.0 mi North 4.6 mph - N/A   Overcast
9:56 PM 28.4 °F 22.2 °F 23.0 °F 80% 29.63 in 10.0 mi NW 5.8 mph - N/A   Overcast
10:16 PM 28.4 °F - 24.8 °F 86% 29.63 in 10.0 mi Calm Calm - N/A   Overcast
10:36 PM 28.4 °F 23.3 °F 24.8 °F 86% 29.63 in 10.0 mi NNW 4.6 mph - N/A   Overcast
10:56 PM 30.2 °F 26.7 °F 24.8 °F 80% 29.63 in 10.0 mi WNW 3.5 mph - N/A   Overcast
11:16 PM 30.2 °F 24.3 °F 24.8 °F 80% 29.63 in 5.0 mi NNW 5.8 mph - N/A   Overcast
11:36 PM 30.2 °F 25.4 °F 24.8 °F 80% 29.63 in 6.0 mi WNW 4.6 mph - N/A   Overcast
11:56 PM 30.2 °F 26.7 °F 24.8 °F 80% 29.63 in 10.0 mi NW 3.5 mph - N/A   Overcast